When you browse on this site, cookies collect data to enhance your experience and personalize the content and advertising you see.
Visit our Privacy Policy to learn more. By continuing to use the site, you agree to this use of cookies and data.
  • In Deutschland
  • Länderverzeichnis
  • Für 7 Tage
  • Wassertemperatur
  • Wetterkarte
  • Widgets
  • user-avatar
    Anmelden

    Stündliche Wetter Enkamp

    Heute, 27 Mai, Mittwoch

    Zeit Temperatur Niederschläge Wind Luftdruck Luftfeuchtigkeit
    00:00 +7°C° 0 mm 2 m/S 629 mmHg 73%
    01:00 +7°C° 0 mm 2 m/S 629 mmHg 69%
    02:00 +8°C° 0 mm 1 m/S 629 mmHg 66%
    03:00 +8°C° 0 mm 1 m/S 629 mmHg 62%
    04:00 +9°C° 0 mm 1 m/S 629 mmHg 63%
    05:00 +10°C° 0 mm 1 m/S 630 mmHg 64%
    06:00 +11°C° 0 mm 1 m/S 630 mmHg 64%
    07:00 +13°C° 0 mm 1 m/S 631 mmHg 57%
    08:00 +16°C° 0 mm 1 m/S 632 mmHg 50%
    09:00 +19°C° 0 mm 1 m/S 634 mmHg 43%
    10:00 +20°C° 0 mm 1 m/S 634 mmHg 43%
    11:00 +19°C° 0 mm 2 m/S 634 mmHg 42%
    12:00 +20°C° 0 mm 2 m/S 634 mmHg 42%
    13:00 +19°C° 0.2 mm 2 m/S 633 mmHg 50%
    14:00 +18°C° 0.2 mm 2 m/S 633 mmHg 59%
    15:00 +17°C° 0.2 mm 2 m/S 632 mmHg 67%
    16:00 +16°C° 0.6 mm 1 m/S 632 mmHg 74%
    17:00 +15°C° 0.6 mm 1 m/S 632 mmHg 81%
    18:00 +14°C° 0.6 mm 1 m/S 631 mmHg 87%
    19:00 +13°C° 0.2 mm 1 m/S 631 mmHg 90%
    20:00 +12°C° 0.2 mm 1 m/S 631 mmHg 93%
    21:00 +11°C° 0.2 mm 1 m/S 631 mmHg 96%
    22:00 +11°C° 0 mm 1 m/S 631 mmHg 95%
    23:00 +10°C° 0 mm 1 m/S 631 mmHg 95%

    Morgen, 28 Mai, Donnerstag

    Zeit Temperatur Niederschläge Wind Luftdruck Luftfeuchtigkeit
    00:00 +10°C° 0 mm 1 m/S 630 mmHg 94%
    01:00 +10°C° 0 mm 1 m/S 630 mmHg 94%
    02:00 +10°C° 0 mm 1 m/S 630 mmHg 93%
    03:00 +10°C° 0 mm 1 m/S 630 mmHg 92%
    04:00 +10°C° 0 mm 1 m/S 630 mmHg 89%
    05:00 +10°C° 0 mm 1 m/S 630 mmHg 86%
    06:00 +11°C° 0 mm 1 m/S 630 mmHg 83%
    07:00 +13°C° 0 mm 1 m/S 631 mmHg 71%
    08:00 +15°C° 0 mm 1 m/S 631 mmHg 58%
    09:00 +18°C° 0 mm 1 m/S 632 mmHg 46%
    10:00 +19°C° 0 mm 1 m/S 632 mmHg 44%
    11:00 +20°C° 0 mm 1 m/S 632 mmHg 42%
    12:00 +20°C° 0 mm 2 m/S 632 mmHg 40%
    13:00 +19°C° 0.2 mm 2 m/S 631 mmHg 46%
    14:00 +18°C° 0.2 mm 2 m/S 631 mmHg 52%
    15:00 +17°C° 0.2 mm 2 m/S 630 mmHg 58%
    16:00 +18°C° 0.4 mm 1 m/S 629 mmHg 64%
    17:00 +16°C° 0.4 mm 1 m/S 629 mmHg 71%
    18:00 +15°C° 0.4 mm 1 m/S 628 mmHg 78%
    19:00 +13°C° 0 mm 1 m/S 628 mmHg 82%
    20:00 +12°C° 0 mm 1 m/S 627 mmHg 87%
    21:00 +10°C° 0 mm 1 m/S 627 mmHg 92%
    22:00 +10°C° 0 mm 1 m/S 627 mmHg 90%
    23:00 +9°C° 0 mm 1 m/S 626 mmHg 88%

    übermorgen, 29 Mai, Freitag

    Zeit Temperatur Niederschläge Wind Luftdruck Luftfeuchtigkeit
    00:00 +9°C° 0 mm 1 m/S 626 mmHg 86%
    01:00 +9°C° 0 mm 1 m/S 626 mmHg 84%
    02:00 +9°C° 0 mm 1 m/S 625 mmHg 81%
    03:00 +8°C° 0 mm 1 m/S 625 mmHg 78%
    04:00 +9°C° 0 mm 1 m/S 625 mmHg 76%
    05:00 +10°C° 0 mm 1 m/S 625 mmHg 73%
    06:00 +11°C° 0 mm 1 m/S 626 mmHg 71%
    07:00 +14°C° 0 mm 1 m/S 626 mmHg 60%
    08:00 +16°C° 0 mm 1 m/S 627 mmHg 48%
    09:00 +19°C° 0 mm 1 m/S 628 mmHg 37%
    10:00 +20°C° 0 mm 1 m/S 628 mmHg 36%
    11:00 +21°C° 0 mm 1 m/S 628 mmHg 34%
    12:00 +21°C° 0 mm 2 m/S 628 mmHg 33%
    13:00 +21°C° 0.1 mm 2 m/S 628 mmHg 37%
    14:00 +20°C° 0.1 mm 2 m/S 627 mmHg 41%
    15:00 +20°C° 0.1 mm 2 m/S 626 mmHg 45%
    16:00 +18°C° 0.5 mm 2 m/S 626 mmHg 55%
    17:00 +18°C° 0.5 mm 1 m/S 625 mmHg 66%
    18:00 +15°C° 0.5 mm 1 m/S 624 mmHg 76%
    19:00 +14°C° 0.1 mm 1 m/S 624 mmHg 81%
    20:00 +12°C° 0.1 mm 1 m/S 624 mmHg 87%
    21:00 +11°C° 0.1 mm 1 m/S 623 mmHg 92%
    22:00 +10°C° 0 mm 1 m/S 623 mmHg 92%
    23:00 +10°C° 0 mm 1 m/S 623 mmHg 92%

    30 Mai, Samstag

    Zeit Temperatur Niederschläge Wind Luftdruck Luftfeuchtigkeit
    00:00 +10°C° 0 mm 1 m/S 623 mmHg 92%
    01:00 +10°C° 0 mm 1 m/S 622 mmHg 91%
    02:00 +9°C° 0 mm 1 m/S 622 mmHg 91%
    03:00 +9°C° 0 mm 1 m/S 622 mmHg 90%
    04:00 +10°C° 0 mm 1 m/S 622 mmHg 86%
    05:00 +10°C° 0 mm 1 m/S 623 mmHg 82%
    06:00 +11°C° 0 mm 1 m/S 623 mmHg 77%
    07:00 +13°C° 0 mm 1 m/S 624 mmHg 67%
    08:00 +16°C° 0 mm 1 m/S 625 mmHg 56%
    09:00 +19°C° 0 mm 1 m/S 626 mmHg 45%
    10:00 +19°C° 0 mm 1 m/S 626 mmHg 44%
    11:00 +19°C° 0 mm 2 m/S 627 mmHg 42%
    12:00 +20°C° 0 mm 2 m/S 627 mmHg 41%
    13:00 +19°C° 0.2 mm 2 m/S 626 mmHg 47%
    14:00 +19°C° 0.2 mm 2 m/S 626 mmHg 53%
    15:00 +18°C° 0.2 mm 2 m/S 626 mmHg 59%
    16:00 +18°C° 0.4 mm 1 m/S 625 mmHg 66%
    17:00 +16°C° 0.4 mm 1 m/S 625 mmHg 74%
    18:00 +15°C° 0.4 mm 1 m/S 624 mmHg 81%
    19:00 +13°C° 0.1 mm 1 m/S 624 mmHg 86%
    20:00 +12°C° 0.1 mm 1 m/S 624 mmHg 90%
    21:00 +10°C° 0.1 mm 0 m/S 623 mmHg 94%
    22:00 +10°C° 0 mm 1 m/S 623 mmHg 94%
    23:00 +10°C° 0 mm 1 m/S 623 mmHg 93%

    31 Mai, Sonntag

    Zeit Temperatur Niederschläge Wind Luftdruck Luftfeuchtigkeit
    00:00 +10°C° 0 mm 1 m/S 623 mmHg 92%
    01:00 +9°C° 0 mm 1 m/S 623 mmHg 90%
    02:00 +9°C° 0 mm 1 m/S 622 mmHg 87%
    03:00 +9°C° 0 mm 1 m/S 622 mmHg 85%
    04:00 +10°C° 0 mm 1 m/S 623 mmHg 80%
    05:00 +11°C° 0 mm 1 m/S 623 mmHg 75%
    06:00 +12°C° 0 mm 1 m/S 624 mmHg 70%
    07:00 +14°C° 0 mm 1 m/S 625 mmHg 62%
    08:00 +16°C° 0 mm 1 m/S 625 mmHg 54%
    09:00 +19°C° 0 mm 1 m/S 626 mmHg 46%
    10:00 +20°C° 0 mm 1 m/S 626 mmHg 43%
    11:00 +20°C° 0 mm 2 m/S 627 mmHg 41%
    12:00 +21°C° 0 mm 2 m/S 627 mmHg 38%
    13:00 +20°C° 0.1 mm 2 m/S 626 mmHg 43%
    14:00 +20°C° 0.1 mm 2 m/S 626 mmHg 47%
    15:00 +19°C° 0.1 mm 2 m/S 625 mmHg 52%
    16:00 +19°C° 0.5 mm 1 m/S 625 mmHg 60%
    17:00 +18°C° 0.5 mm 1 m/S 624 mmHg 68%
    18:00 +15°C° 0.5 mm 0 m/S 624 mmHg 76%
    19:00 +14°C° 0.2 mm 0 m/S 623 mmHg 80%
    20:00 +12°C° 0.2 mm 0 m/S 623 mmHg 83%
    21:00 +11°C° 0.2 mm 0 m/S 623 mmHg 87%
    22:00 +12°C° 0.4 mm 1 m/S 623 mmHg 87%
    23:00 +11°C° 0.4 mm 1 m/S 623 mmHg 87%

    1 Juni, Montag

    Zeit Temperatur Niederschläge Wind Luftdruck Luftfeuchtigkeit
    00:00 +11°C° 0.4 mm 1 m/S 622 mmHg 87%
    01:00 +11°C° 0.1 mm 1 m/S 622 mmHg 86%
    02:00 +11°C° 0.1 mm 1 m/S 622 mmHg 86%
    03:00 +10°C° 0.1 mm 1 m/S 622 mmHg 85%
    04:00 +11°C° 0 mm 1 m/S 622 mmHg 83%
    05:00 +12°C° 0 mm 1 m/S 623 mmHg 80%
    06:00 +13°C° 0 mm 1 m/S 623 mmHg 77%
    07:00 +15°C° 0.2 mm 1 m/S 624 mmHg 72%
    08:00 +16°C° 0.2 mm 1 m/S 624 mmHg 68%
    09:00 +19°C° 0.2 mm 1 m/S 625 mmHg 63%
    10:00 +18°C° 1.1 mm 1 m/S 625 mmHg 66%
    11:00 +18°C° 1.1 mm 1 m/S 624 mmHg 70%
    12:00 +16°C° 1.1 mm 0 m/S 624 mmHg 74%
    13:00 +16°C° 1.8 mm 1 m/S 624 mmHg 78%
    14:00 +15°C° 1.8 mm 1 m/S 623 mmHg 83%
    15:00 +14°C° 1.8 mm 1 m/S 622 mmHg 88%
    16:00 +14°C° 0.7 mm 1 m/S 622 mmHg 88%
    17:00 +14°C° 0.7 mm 1 m/S 622 mmHg 89%
    18:00 +14°C° 0.7 mm 1 m/S 622 mmHg 89%
    19:00 +13°C° 0.4 mm 1 m/S 622 mmHg 90%
    20:00 +12°C° 0.4 mm 1 m/S 622 mmHg 91%
    21:00 +10°C° 0.4 mm 1 m/S 622 mmHg 92%
    22:00 +10°C° 0 mm 1 m/S 622 mmHg 91%
    23:00 +10°C° 0 mm 1 m/S 622 mmHg 89%
    Mehr zeigen